sat.trackr.live / text

‹ back to catalog

STARLINK-35857

NORAD 67186 · 2025-303Z

PAYLOAD ACTIVE UNKNOWN

§ Identity

Operator
Country
US
Launch date
2025-12-17
Launch site
AFETR
Launch vehicle
Mass (kg)
RCS (m²)

Purposes: comms

External: N2YO · Heavens-Above · Gunter

§ Orbital elements

Epoch: 2026-09-20T03:05:31.197120Z

Period
94.27 min
Inclination
42.9982°
Eccentricity
0.0001224
Mean motion
15.27588325 rev/d
Perigee alt
482.2 km
Apogee alt
483.9 km
Semi-major
6,861.2 km
B*
2.9958e-4
RAAN
292.4850°
Arg perigee
277.0785°
Mean anomaly
82.9928°
Rev number
4,247

§ Raw data

STARLINK-358571 67186U 25303Z   26263.12883330  .00007993  00000+0  29958-3 0  99912 67186  42.9982 292.4850 0001224 277.0785  82.9928 15.27588325 42470

JSON: /api/v1/satellites/67186 · /tle

For live sub-satellite position, see the globe view (requires WebGL).

§ Visibility from observer

Set your observer location to see the next 7 days of passes ≥ 10°. The values pass through the URL so the page stays shareable.

No JS? Fill the form by hand. The geolocation button needs JavaScript.